CW9861 Weather Reports


time (UTC)temp
C
wind
direction
speed
KPH
gust
KPH
rain 1hr
cm
rain 24hr
cm
rain mn
cm
humidity
%
barometer
mb
20260905034458 21 86 0.0 3.2 0.00 3.91 3.91 90 1013.3
20260905033958 21 93 1.6 3.2 0.00 3.91 3.91 90 1013.2
20260905033459 21 163 0.0 0.0 0.00 3.91 3.91 90 1013.2
20260905032959 21 163 0.0 0.0 0.00 3.91 3.91 90 1013.3
20260905032458 21 163 0.0 0.0 0.00 3.91 3.91 90 1013.4
20260905032000 21 163 0.0 0.0 0.00 3.91 3.91 90 1013.3
20260905031458 21 163 0.0 0.0 0.00 3.91 3.91 90 1013.3
20260905030959 21 163 0.0 0.0 0.00 3.91 3.91 90 1013.4
20260905030458 22 163 0.0 0.0 0.00 3.91 3.91 90 1013.3
20260905025958 22 163 0.0 0.0 0.00 3.91 3.91 90 1013.3
20260905025458 22 163 0.0 0.0 0.00 3.91 3.91 90 1013.4
20260905024958 22 163 0.0 0.0 0.00 3.91 3.91 90 1013.3
20260905024457 22 163 0.0 0.0 0.00 3.91 3.91 90 1013.3
20260905023957 22 163 0.0 0.0 0.00 3.91 3.91 90 1013.4
20260905023457 22 163 0.0 0.0 0.00 3.91 3.91 90 1013.4
20260905022957 22 163 0.0 0.0 0.00 3.91 3.91 90 1013.3
20260905022457 22 163 0.0 0.0 0.00 3.91 3.91 90 1013.3
20260905021958 22 163 0.0 0.0 0.00 3.91 3.91 90 1013.5
20260905021457 22 163 0.0 0.0 0.00 3.91 3.91 90 1013.4
20260905020957 22 163 0.0 0.0 0.00 3.91 3.91 90 1013.4
20260905020458 22 163 0.0 0.0 0.00 3.91 3.91 90 1013.3
20260905015957 22 163 0.0 0.0 0.00 3.91 3.91 90 1013.5
20260905015458 22 163 0.0 0.0 0.00 3.91 3.91 90 1013.4
20260905014958 22 163 0.0 0.0 0.00 3.91 3.91 90 1013.3
20260905014458 22 163 0.0 0.0 0.00 3.91 3.91 90 1013.4
20260905013958 22 163 0.0 0.0 0.00 3.91 3.91 90 1013.3
20260905013457 22 163 0.0 0.0 0.00 3.91 3.91 90 1013.3
20260905012958 22 163 0.0 0.0 0.00 3.91 3.91 90 1013.4
20260905012457 22 163 0.0 0.0 0.00 3.91 3.91 90 1013.5
20260905011957 22 163 0.0 0.0 0.00 3.91 3.91 90 1013.5
20260905011458 22 163 0.0 0.0 0.00 3.91 3.91 90 1013.4
20260905010957 22 163 0.0 0.0 0.00 3.91 3.91 90 1013.4
20260905010458 22 163 0.0 0.0 0.00 3.91 3.91 90 1013.3
20260905005957 22 163 0.0 0.0 0.00 3.91 3.91 89 1013.4
20260905005457 22 163 0.0 0.0 0.00 3.91 3.91 89 1013.3
20260905004957 23 163 0.0 0.0 0.00 3.91 3.91 89 1013.3
20260905004457 23 163 0.0 0.0 0.00 3.91 3.91 89 1013.3
20260905003956 23 163 0.0 0.0 0.00 3.91 3.91 89 1013.2
20260905003457 23 163 0.0 0.0 0.00 3.91 3.91 89 1013.3
20260905002959 23 163 0.0 0.0 0.00 3.91 3.91 89 1013.1
20260905002457 23 163 0.0 0.0 0.00 3.91 3.91 88 1013.1
20260905001957 23 163 0.0 0.0 0.00 3.91 3.91 88 1013.1
20260905001457 23 163 0.0 0.0 0.00 3.91 3.91 88 1013.1
20260905000958 23 163 0.0 0.0 0.00 3.91 3.91 88 1013.0
20260905000457 23 163 0.0 0.0 0.00 3.91 3.91 88 1013.0
20260904235958 23 163 0.0 0.0 0.00 3.91 3.91 88 1012.9
20260904235457 23 163 0.0 0.0 0.00 3.91 3.91 88 1012.9
20260904234958 23 163 0.0 0.0 0.00 3.91 3.91 89 1013.0
20260904234458 23 163 0.0 0.0 0.00 3.91 3.91 89 1013.0
20260904233957 23 163 0.0 0.0 0.00 3.91 3.91 89 1013.1
20260904233458 23 163 0.0 0.0 0.00 3.91 3.91 88 1013.0
20260904232959 23 163 0.0 0.0 0.00 3.91 3.91 88 1013.1
20260904232458 23 163 0.0 1.6 0.00 3.91 3.91 88 1013.2
20260904224458 25 74 0.0 0.0 0.00 3.91 3.91 87 1013.0
20260904223957 25 74 0.0 0.0 0.00 3.91 3.91 86 1012.8
20260904223458 25 74 0.0 0.0 0.00 3.91 3.91 86 1012.8
20260904222957 25 74 0.0 0.0 0.00 3.91 3.91 86 1012.8
20260904222457 25 74 0.0 1.6 0.00 3.91 3.91 85 1012.8
20260904221957 25 74 0.0 1.6 0.00 3.91 3.91 84 1012.5
20260904221457 26 78 0.0 3.2 0.00 3.91 3.91 84 1012.5
20260904220958 26 78 0.0 1.6 0.00 3.91 3.91 84 1012.4
20260904220457 25 78 0.0 1.6 0.00 3.91 3.91 84 1012.3
20260904220000 25 78 0.0 3.2 0.00 3.91 3.91 86 1012.1
20260904215457 25 78 0.0 4.8 0.00 3.91 3.91 86 1012.2
20260904214957 25 137 0.0 4.8 0.00 3.91 3.91 85 1012.3
20260904214458 25 107 0.0 1.6 0.00 3.91 3.91 86 1012.3
20260904213958 25 290 0.0 0.0 0.00 3.91 3.91 88 1012.3
20260904213457 25 290 0.0 3.2 0.00 3.91 3.91 87 1012.2
20260904212958 25 290 0.0 3.2 0.00 3.91 3.91 87 1012.3
20260904212457 25 11 0.0 1.6 0.00 3.91 3.91 86 1012.3
20260904211958 25 349 0.0 1.6 0.00 3.91 3.91 87 1012.3
20260904211458 25 99 0.0 3.2 0.00 3.91 3.91 87 1012.3
20260904210958 25 345 0.0 3.2 0.00 3.91 3.91 85 1012.3
20260904210457 25 332 1.6 3.2 0.00 3.91 3.91 84 1012.4
20260904210000 25 285 0.0 3.2 0.00 3.91 3.91 85 1012.5
20260904205458 25 329 0.0 1.6 0.00 3.91 3.91 86 1012.5
20260904204958 25 329 0.0 4.8 0.00 3.91 3.91 86 1012.7
20260904204458 25 112 0.0 4.8 0.00 3.91 3.91 87 1012.7
20260904203959 25 123 0.0 1.6 0.00 3.91 3.91 88 1012.7
20260904200000 24 258 0.0 1.6 0.00 3.91 3.91 86 1012.8
20260904195458 24 232 0.0 1.6 0.00 3.91 3.91 87 1013.2
20260904194959 24 232 0.0 1.6 0.00 3.91 3.91 87 1013.3
20260904194458 24 184 0.0 3.2 0.00 3.91 3.91 88 1013.3
20260904193959 24 184 0.0 3.2 0.00 3.91 3.91 88 1013.4
20260904193458 23 86 0.0 1.6 0.00 3.91 3.91 88 1013.3
20260904192959 23 179 0.0 3.2 0.00 3.91 3.91 89 1013.4
20260904192458 23 182 0.0 3.2 0.00 3.91 3.91 89 1013.4
20260904191958 23 45 1.6 3.2 0.00 3.91 3.91 89 1013.4
20260904191458 23 55 1.6 3.2 0.00 3.91 3.91 89 1013.4
20260904190958 23 57 1.6 3.2 0.00 3.91 3.91 90 1013.4
20260904190459 23 40 1.6 3.2 0.00 3.91 3.91 89 1013.4
20260904185957 23 38 1.6 3.2 0.00 3.99 3.91 90 1013.4
20260904185457 23 218 0.0 3.2 0.00 3.99 3.91 89 1013.5
20260904184957 23 218 1.6 4.8 0.00 3.99 3.91 90 1013.4
20260904184458 23 207 0.0 3.2 0.00 3.99 3.91 90 1013.3
20260904183957 23 49 1.6 3.2 0.00 3.99 3.91 90 1013.3
20260904183457 23 222 1.6 3.2 0.00 3.99 3.91 90 1013.3
20260904182957 23 349 0.0 3.2 0.00 3.99 3.91 91 1013.3
20260904182458 23 27 1.6 3.2 0.00 3.99 3.91 91 1013.2
20260904181957 23 69 0.0 3.2 0.00 3.99 3.91 91 1013.2
20260904181457 23 76 0.0 3.2 0.00 3.99 3.91 91 1013.2
20260904180958 23 76 0.0 4.8 0.00 3.99 3.91 91 1013.2
20260904180457 22 138 1.6 4.8 0.00 3.99 3.91 91 1013.2
20260904175958 23 93 0.0 3.2 0.00 4.60 3.91 92 1013.3
20260904175457 22 33 1.6 3.2 0.00 4.60 3.91 92 1013.3
20260904174957 22 74 1.6 3.2 0.00 4.60 3.91 92 1013.3
20260904174458 22 49 1.6 3.2 0.00 4.60 3.91 92 1013.5
20260904173957 22 84 0.0 3.2 0.00 4.60 3.91 92 1013.5
20260904173457 22 70 0.0 3.2 0.00 4.60 3.91 92 1013.5
20260904172957 22 70 0.0 3.2 0.00 4.60 3.91 92 1013.4
20260904172457 22 4 1.6 3.2 0.00 4.60 3.91 92 1013.3
20260904171958 22 100 0.0 3.2 0.00 4.60 3.91 92 1013.3
20260904171458 22 93 1.6 3.2 0.03 4.60 3.91 92 1013.2
20260904170958 22 68 1.6 3.2 0.03 4.60 3.91 92 1013.3
20260904170457 21 70 0.0 3.2 0.03 4.60 3.91 92 1013.1
20260904165958 21 37 0.0 1.6 0.03 4.60 3.91 93 1013.2
20260904165458 21 37 0.0 1.6 0.03 4.60 3.91 93 1013.1
20260904161957 20 238 0.0 3.2 0.03 4.60 3.91 92 1013.8
20260904161457 20 238 1.6 4.8 0.03 4.57 3.89 92 1013.8
20260904160957 20 182 1.6 4.8 0.05 4.57 3.89 92 1013.8
20260904160457 20 5 0.0 1.6 0.05 4.57 3.89 92 1013.8
20260904155958 20 1 0.0 1.6 0.05 4.57 3.89 92 1013.9
20260904155457 20 1 0.0 3.2 0.05 4.57 3.89 92 1014.1
20260904154957 20 1 0.0 3.2 0.05 4.57 3.89 92 1013.8
20260904154457 20 95 1.6 3.2 0.05 4.57 3.89 92 1013.3
20260904153957 20 95 0.0 3.2 0.08 4.57 3.89 92 1013.1
20260904153456 20 99 1.6 3.2 0.10 4.57 3.89 92 1013.1
20260904152957 20 149 0.0 1.6 0.15 4.57 3.89 92 1013.7
20260904152457 20 149 0.0 1.6 0.20 4.57 3.89 92 1013.6
20260904151957 20 148 1.6 3.2 0.23 4.57 3.89 92 1013.7
20260904151457 20 149 1.6 3.2 0.25 4.55 3.86 92 1013.6
20260904150957 20 212 0.0 3.2 0.25 4.52 3.84 92 1013.1
20260904150457 20 212 0.0 4.8 0.28 4.52 3.84 92 1013.0
20260904145958 20 360 1.6 8.0 0.33 4.52 3.84 92 1012.2
20260904145457 20 197 3.2 8.0 0.36 4.52 3.84 92 1012.8
20260904144957 20 326 3.2 17.7 0.38 4.52 3.84 92 1013.0
20260904144457 20 170 6.4 17.7 0.41 4.52 3.84 92 1012.3
20260904143957 20 224 6.4 16.1 0.43 4.50 3.81 92 1012.6
20260904143457 20 244 8.0 20.9 0.46 4.47 3.78 92 1012.8
20260904142957 20 247 6.4 20.9 0.46 4.42 3.73 92 1013.5
20260904142457 20 203 4.8 8.0 0.46 4.37 3.68 92 1013.9
20260904134458 20 102 0.0 4.8 0.58 4.11 3.43 92 1013.4
20260904133958 20 260 1.6 4.8 0.56 4.06 3.38 92 1013.9
20260904133458 20 168 1.6 4.8 0.56 4.01 3.33 92 1014.5
20260904132959 20 213 1.6 3.2 0.53 3.96 3.28 92 1014.7
20260904132458 20 288 0.0 3.2 0.53 3.91 3.23 92 1015.1
20260904131958 21 280 0.0 4.8 0.56 3.89 3.20 92 1015.3
20260904131457 21 9 1.6 4.8 0.56 3.86 3.17 92 1015.2
20260904123459 20 101 0.0 1.6 0.28 3.51 2.77 92 1014.6
20260904122959 20 101 0.0 1.6 0.28 3.48 2.74 92 1014.6
20260904122459 20 101 0.0 1.6 0.36 3.43 2.69 92 1014.7
20260904121957 20 101 0.0 1.6 1.22 3.38 2.64 92 1014.8
20260904121458 20 101 0.0 0.0 1.45 3.35 2.62 92 1014.7
20260904120957 20 101 0.0 1.6 1.52 3.35 2.62 92 1014.5
20260904120458 20 101 0.0 1.6 1.52 3.33 2.59 92 1014.5
20260904120000 20 101 0.0 0.0 1.52 3.33 2.59 92 1014.6
20260904115457 20 101 0.0 0.0 1.55 3.33 2.59 92 1014.5
20260904114958 20 101 0.0 1.6 1.52 3.30 2.57 92 1014.5
20260904114457 20 101 0.0 3.2 1.52 3.30 2.57 92 1014.4
20260904113958 20 101 1.6 3.2 1.50 3.25 2.51 92 1014.3
20260904113458 20 192 1.6 4.8 1.47 3.23 2.49 92 1014.8
20260904112957 20 137 3.2 9.7 1.45 3.20 2.46 92 1014.6
20260904112457 21 247 1.6 9.7 1.22 2.95 2.21 92 1015.0
20260904111958 21 350 3.2 8.0 0.43 2.16 1.42 92 1014.9
20260904111457 21 280 1.6 4.8 0.18 1.91 1.17 92 1014.2
20260904110957 21 124 0.0 1.6 0.10 1.83 1.09 92 1013.6
20260904110458 21 124 0.0 3.2 0.08 1.80 1.07 92 1013.8
20260904105957 21 82 0.0 3.2 0.05 1.78 1.04 92 1013.5
20260904105456 21 214 0.0 1.6 0.05 1.78 1.04 92 1013.4
20260904104956 21 214 0.0 1.6 0.05 1.78 1.04 92 1013.5
20260904104456 21 202 0.0 1.6 0.05 1.78 1.04 92 1013.3
20260904103957 21 202 0.0 4.8 0.03 1.75 1.02 92 1012.8
20260904103457 21 202 1.6 4.8 0.03 1.75 1.02 92 1012.8
20260904102957 20 116 0.0 1.6 0.03 1.75 1.02 92 1013.1
20260904102457 20 116 0.0 1.6 0.00 1.73 0.99 92 1012.9
20260904101956 20 149 0.0 1.6 0.00 1.73 0.99 92 1012.6
20260904101457 20 149 0.0 1.6 0.00 1.73 0.99 92 1012.5
20260904100957 20 149 0.0 1.6 0.00 1.73 0.99 92 1012.6
20260904100457 20 149 0.0 1.6 0.00 1.73 0.99 92 1012.6
20260904095957 20 86 0.0 1.6 0.00 1.73 0.99 92 1012.4
20260904095457 20 86 0.0 1.6 0.00 1.73 0.99 92 1012.2
20260904094957 20 86 0.0 1.6 0.00 1.73 0.99 92 1012.1
20260904094456 20 86 0.0 1.6 0.00 1.73 0.99 92 1012.3
20260904093958 20 113 0.0 1.6 0.00 1.73 0.99 92 1012.5
20260904093456 20 113 0.0 1.6 0.00 1.73 0.99 92 1012.2
20260904092956 20 78 0.0 3.2 0.00 1.73 0.99 92 1012.1
20260904092456 20 61 0.0 1.6 0.00 1.73 0.99 92 1012.1
20260904091956 21 61 0.0 1.6 0.00 1.73 0.99 92 1012.2
20260904091456 21 61 0.0 1.6 0.03 1.73 0.99 92 1012.3
20260904090957 21 61 0.0 1.6 0.03 1.73 0.99 92 1012.2
20260904090457 21 61 0.0 3.2 0.08 1.73 0.99 92 1012.1
20260904085957 21 64 1.6 3.2 0.48 1.73 0.99 92 1011.9
20260904085456 21 64 0.0 3.2 0.56 1.73 0.99 92 1011.9
20260904084959 21 61 1.6 3.2 0.69 1.73 0.99 92 1012.3
20260904084456 21 63 1.6 3.2 0.99 1.73 0.99 92 1012.7
20260904083957 21 355 0.0 3.2 0.99 1.73 0.99 92 1012.9
20260904083457 21 355 0.0 3.2 0.99 1.73 0.99 92 1012.7
20260904082957 21 333 0.0 3.2 0.99 1.73 0.99 92 1012.8
20260904082457 21 333 0.0 3.2 0.99 1.73 0.99 92 1012.8
20260904074458 20 315 1.6 3.2 0.00 0.74 0.00 91 1013.2
20260904073958 20 39 0.0 1.6 0.00 0.74 0.00 91 1013.1
20260904073458 20 39 0.0 1.6 0.00 0.74 0.00 91 1012.6
20260904072958 20 39 0.0 0.0 0.00 0.74 0.00 91 1012.7
20260904072458 20 39 0.0 0.0 0.00 0.74 0.00 91 1012.6
20260904071957 20 39 0.0 0.0 0.00 0.74 0.00 91 1013.1
20260904071457 20 39 0.0 0.0 0.00 0.74 0.00 91 1013.2
20260904070957 20 39 0.0 0.0 0.00 0.74 0.00 91 1013.3
20260904070457 20 39 0.0 0.0 0.00 0.74 0.00 91 1013.2
20260904065959 20 39 0.0 0.0 0.00 0.74 0.00 91 1013.2
20260904065458 20 39 0.0 0.0 0.00 0.74 0.00 91 1013.2
20260904064958 20 39 0.0 0.0 0.00 0.74 0.00 91 1013.1
20260904064459 20 39 0.0 3.2 0.00 0.74 0.00 91 1012.6
20260904063958 20 39 0.0 3.2 0.00 0.74 0.00 91 1012.4
20260904063457 20 266 0.0 0.0 0.00 0.74 0.00 91 1012.8
20260904062957 20 266 0.0 0.0 0.00 0.74 0.00 91 1012.9
20260904062457 20 266 0.0 0.0 0.00 0.74 0.00 91 1013.0
20260904061957 20 266 0.0 1.6 0.00 0.74 0.00 91 1013.2
20260904061458 20 266 0.0 1.6 0.00 0.74 0.00 91 1013.2
20260904060958 20 266 0.0 0.0 0.00 0.74 0.00 90 1013.3
20260904060458 20 266 0.0 0.0 0.00 0.74 0.00 90 1013.3
20260904055959 20 266 0.0 0.0 0.00 0.74 0.00 90 1013.5
20260904055457 20 266 0.0 0.0 0.00 0.74 0.00 90 1013.8
20260904054957 20 266 0.0 0.0 0.00 0.74 0.00 90 1013.9
20260904054457 20 266 0.0 0.0 0.00 0.74 0.00 90 1014.0
20260904050958 20 266 0.0 0.0 0.00 0.74 0.00 90 1013.4
20260904050458 20 266 0.0 0.0 0.00 0.74 0.00 90 1013.4
20260904045957 20 266 0.0 0.0 0.00 0.74 0.00 90 1013.4
20260904045457 20 266 0.0 0.0 0.00 0.74 0.00 90 1013.4
20260904044957 20 266 0.0 0.0 0.00 0.74 0.00 90 1013.5
20260904044457 20 266 0.0 0.0 0.00 0.74 0.00 90 1013.5
20260904043957 20 266 0.0 0.0 0.00 0.74 0.00 90 1013.6
20260904043456 20 266 0.0 0.0 0.00 0.74 0.00 90 1013.8
20260904042957 21 266 0.0 0.0 0.00 0.74 0.00 90 1013.8
20260904042456 21 266 0.0 0.0 0.00 0.74 0.00 90 1014.0
20260904041957 21 266 0.0 0.0 0.00 0.74 0.00 90 1014.0
20260904041456 21 266 0.0 0.0 0.00 0.74 0.00 90 1014.0
20260904040957 21 266 0.0 0.0 0.00 0.74 0.00 89 1014.0
20260904040456 21 266 0.0 0.0 0.00 0.74 0.00 89 1014.2